,,,PA_Meas_PMT16A,,PR_Meas_QMR101_102,,RH_Meas_QMH101,,SR_Meas_QMS101,,TA_Meas_QMH101,,GenWind,,GenWind,
date,time,status,PA,status,PR,status,RH,status,SR,status,TA,status,DirAvg,status,SpdAvg,
2009-09-13, 00:00:04,VALID,1007.58,VALID,0,VALID,94.0336,VALID,0,VALID,24.6964,VALID,20,VALID,0,
2009-09-13, 00:01:04,VALID,1007.56,VALID,0,VALID,94.0794,VALID,0,VALID,24.6964,VALID,20,VALID,0,
2009-09-13, 00:02:04,VALID,1007.56,VALID,0,VALID,94.1404,VALID,0,VALID,24.7159,VALID,20,VALID,0,
2009-09-13, 00:03:04,VALID,1007.57,VALID,0,VALID,94.1404,VALID,0,VALID,24.6964,VALID,20,VALID,0,
2009-09-13, 00:04:04,VALID,1007.55,VALID,0,VALID,94.1404,VALID,0,VALID,24.6964,VALID,20,VALID,0,
2009-09-13, 00:05:04,VALID,1007.57,VALID,0,VALID,94.1251,VALID,0,VALID,24.6769,VALID,20,VALID,0,
2009-09-13, 00:06:04,VALID,1007.57,VALID,0,VALID,94.1175,VALID,0,VALID,24.638,VALID,20,VALID,0.400781,
2009-09-13, 00:07:04,VALID,1007.58,VALID,0,VALID,94.1251,VALID,0,VALID,24.5777,VALID,20,VALID,0.507813,
2009-09-13, 00:08:04,VALID,1007.55,VALID,0,VALID,94.1328,VALID,0,VALID,24.599,VALID,20,VALID,0.46875,
2009-09-13, 00:09:04,VALID,1007.56,VALID,0,VALID,94.148,VALID,0,VALID,24.5601,VALID,20,VALID,0.33125,
2009-09-13, 00:10:04,VALID,1007.53,VALID,0,VALID,94.1404,VALID,0,VALID,24.5406,VALID,20,VALID,0.507422,
2009-09-13, 00:11:04,VALID,1007.53,VALID,0,VALID,94.1862,VALID,0,VALID,24.5193,VALID,20,VALID,0.390625,
2009-09-13, 00:12:04,VALID,1007.52,VALID,0,VALID,94.1938,VALID,0,VALID,24.5017,VALID,20,VALID,0.461719,
2009-09-13, 00:13:04,VALID,1007.53,VALID,0,VALID,94.2167,VALID,0,VALID,24.5017,VALID,20,VALID,0.246094,
2009-09-13, 00:14:04,VALID,1007.51,VALID,0,VALID,94.2624,VALID,0,VALID,24.4609,VALID,20,VALID,0.317578,
2009-09-13, 00:15:04,VALID,1007.52,VALID,0,VALID,94.2777,VALID,0,VALID,24.4628,VALID,20,VALID,0,
2009-09-13, 00:16:04,VALID,1007.53,VALID,0,VALID,94.3082,VALID,0,VALID,24.4822,VALID,20,VALID,0,
2009-09-13, 00:17:04,VALID,1007.51,VALID,0,VALID,94.3387,VALID,0,VALID,24.4628,VALID,20,VALID,0,
2009-09-13, 00:18:04,VALID,1007.52,VALID,0,VALID,94.3845,VALID,0,VALID,24.4628,VALID,20,VALID,0,
2009-09-13, 00:19:04,VALID,1007.49,VALID,0,VALID,94.415,VALID,0,VALID,24.5035,VALID,20,VALID,0,
2009-09-13, 00:20:04,VALID,1007.48,VALID,0,VALID,94.4608,VALID,0,VALID,24.5017,VALID,20,VALID,0.442187,
2009-09-13, 00:21:04,VALID,1007.47,VALID,0,VALID,94.4989,VALID,0,VALID,24.5017,VALID,20,VALID,0.366797,
2009-09-13, 00:22:04,VALID,1007.49,VALID,0,VALID,94.5066,VALID,0,VALID,24.5017,VALID,20,VALID,0.440625,
2009-09-13, 00:23:04,VALID,1007.49,VALID,0,VALID,94.4989,VALID,0,VALID,24.5035,VALID,20,VALID,0.291406,
2009-09-13, 00:24:04,VALID,1007.51,VALID,0,VALID,94.4989,VALID,0,VALID,24.4804,VALID,20,VALID,0.322266,
2009-09-13, 00:25:04,VALID,1007.5,VALID,0,VALID,94.4455,VALID,0,VALID,24.4609,VALID,20,VALID,0.232812,
2009-09-13, 00:26:04,VALID,1007.51,VALID,0,VALID,94.415,VALID,0,VALID,24.422,VALID,20,VALID,0.147266,
2009-09-13, 00:27:04,VALID,1007.5,VALID,0,VALID,94.415,VALID,0,VALID,24.4433,VALID,20,VALID,0.175781,
2009-09-13, 00:28:04,VALID,1007.49,VALID,0,VALID,94.4303,VALID,0,VALID,24.4628,VALID,20,VALID,0.207813,
2009-09-13, 00:29:04,VALID,1007.46,VALID,0,VALID,94.4532,VALID,0,VALID,24.4628,VALID,20,VALID,0,
2009-09-13, 00:30:04,VALID,1007.45,VALID,0,VALID,94.4532,VALID,0,VALID,24.4433,VALID,20,VALID,0,
2009-09-13, 00:31:04,VALID,1007.46,VALID,0,VALID,94.4608,VALID,0,VALID,24.4628,VALID,20,VALID,0,
2009-09-13, 00:32:04,VALID,1007.42,VALID,0,VALID,94.4761,VALID,0,VALID,24.4433,VALID,20,VALID,0.370703,
2009-09-13, 00:33:04,VALID,1007.43,VALID,0,VALID,94.4837,VALID,0,VALID,24.422,VALID,20,VALID,0.299219,
2009-09-13, 00:34:04,VALID,1007.44,VALID,0,VALID,94.4608,VALID,0,VALID,24.422,VALID,20,VALID,0.228125,
2009-09-13, 00:35:04,VALID,1007.44,VALID,0,VALID,94.4913,VALID,0,VALID,24.422,VALID,20,VALID,0.202344,
2009-09-13, 00:36:04,VALID,1007.42,VALID,0,VALID,94.4913,VALID,0,VALID,24.4238,VALID,20,VALID,0.128516,
2009-09-13, 00:37:04,VALID,1007.41,VALID,0,VALID,94.5218,VALID,0,VALID,24.422,VALID,20,VALID,0.190625,
2009-09-13, 00:38:04,VALID,1007.36,VALID,0,VALID,94.56,VALID,0,VALID,24.4238,VALID,20,VALID,0.0015625,
2009-09-13, 00:39:04,VALID,1007.34,VALID,0,VALID,94.5905,VALID,0,VALID,24.4628,VALID,20,VALID,0,
2009-09-13, 00:40:04,VALID,1007.35,VALID,0,VALID,94.6057,VALID,0,VALID,24.4628,VALID,20,VALID,0,
2009-09-13, 00:41:04,VALID,1007.34,VALID,0,VALID,94.6057,VALID,0,VALID,24.4628,VALID,20,VALID,0,
2009-09-13, 00:42:04,VALID,1007.31,VALID,0,VALID,94.6286,VALID,0,VALID,24.4628,VALID,20,VALID,0,
2009-09-13, 00:43:04,VALID,1007.31,VALID,0,VALID,94.6363,VALID,0,VALID,24.4822,VALID,20,VALID,0,
2009-09-13, 00:44:04,VALID,1007.31,VALID,0,VALID,94.6668,VALID,0,VALID,24.5017,VALID,20,VALID,0.195313,
2009-09-13, 00:45:04,VALID,1007.36,VALID,0,VALID,94.6668,VALID,0,VALID,24.4804,VALID,20,VALID,0.203906,
2009-09-13, 00:46:04,VALID,1007.37,VALID,0,VALID,94.682,VALID,0,VALID,24.4998,VALID,20,VALID,0,
2009-09-13, 00:47:04,VALID,1007.35,VALID,0,VALID,94.6897,VALID,0,VALID,24.4998,VALID,20,VALID,0,
2009-09-13, 00:48:04,VALID,1007.37,VALID,0,VALID,94.6897,VALID,0,VALID,24.5212,VALID,20,VALID,0.296875,
2009-09-13, 00:49:04,VALID,1007.38,VALID,0,VALID,94.6973,VALID,0,VALID,24.5212,VALID,20,VALID,0.30625,
2009-09-13, 00:50:04,VALID,1007.37,VALID,0,VALID,94.682,VALID,0,VALID,24.5017,VALID,20,VALID,0.448828,
2009-09-13, 00:51:04,VALID,1007.39,VALID,0,VALID,94.6439,VALID,0,VALID,24.4822,VALID,20,VALID,0.225781,
2009-09-13, 00:52:04,VALID,1007.39,VALID,0,VALID,94.6515,VALID,0,VALID,24.4414,VALID,20,VALID,0.0796875,
2009-09-13, 00:53:04,VALID,1007.35,VALID,0,VALID,94.6668,VALID,0,VALID,24.4609,VALID,20,VALID,0,
2009-09-13, 00:54:04,VALID,1007.35,VALID,0,VALID,94.6515,VALID,0,VALID,24.4628,VALID,20,VALID,0,
2009-09-13, 00:55:04,VALID,1007.34,VALID,0,VALID,94.682,VALID,0,VALID,24.5017,VALID,20,VALID,0.296875,
2009-09-13, 00:56:04,VALID,1007.28,VALID,0,VALID,94.7125,VALID,0,VALID,24.5017,VALID,20,VALID,0.382031,
2009-09-13, 00:57:04,VALID,1007.24,VALID,0,VALID,94.7049,VALID,0,VALID,24.5212,VALID,20,VALID,0.501562,
2009-09-13, 00:58:04,VALID,1007.28,VALID,0,VALID,94.7049,VALID,0,VALID,24.562,VALID,13,VALID,0.508984,
2009-09-13, 00:59:04,VALID,1007.27,VALID,0,VALID,94.7354,VALID,0,VALID,24.5601,VALID,13,VALID,0.365625,
2009-09-13, 01:00:04,VALID,1007.25,VALID,0,VALID,94.6897,VALID,0,VALID,24.5406,VALID,13,VALID,0.321875,
2009-09-13, 01:01:04,VALID,1007.24,VALID,0,VALID,94.6134,VALID,0,VALID,24.5212,VALID,13,VALID,0.101953,
2009-09-13, 01:02:04,VALID,1007.24,VALID,0,VALID,94.5829,VALID,0,VALID,24.4609,VALID,13,VALID,0,
2009-09-13, 01:03:04,VALID,1007.22,VALID,0,VALID,94.4837,VALID,0,VALID,24.4628,VALID,13,VALID,0.00078125,
2009-09-13, 01:04:04,VALID,1007.23,VALID,0,VALID,94.4989,VALID,0,VALID,24.4609,VALID,13,VALID,0.330859,
2009-09-13, 01:05:04,VALID,1007.21,VALID,0,VALID,94.5295,VALID,0,VALID,24.5017,VALID,13,VALID,0,
2009-09-13, 01:06:04,VALID,1007.19,VALID,0,VALID,94.5829,VALID,0,VALID,24.5212,VALID,13,VALID,0,
2009-09-13, 01:07:04,VALID,1007.19,VALID,0,VALID,94.6134,VALID,0,VALID,24.5601,VALID,13,VALID,0.515625,
2009-09-13, 01:08:04,VALID,1007.2,VALID,0,VALID,94.6286,VALID,0,VALID,24.5388,VALID,14,VALID,0.230078,
2009-09-13, 01:09:04,VALID,1007.19,VALID,0,VALID,94.6286,VALID,0,VALID,24.5601,VALID,14,VALID,0.216406,
2009-09-13, 01:10:04,VALID,1007.22,VALID,0,VALID,94.6286,VALID,0,VALID,24.5601,VALID,14,VALID,0.238281,
2009-09-13, 01:11:04,VALID,1007.25,VALID,0,VALID,94.6286,VALID,0,VALID,24.5796,VALID,14,VALID,0.171875,
2009-09-13, 01:12:04,VALID,1007.23,VALID,0,VALID,94.621,VALID,0,VALID,24.5777,VALID,14,VALID,0,
2009-09-13, 01:13:04,VALID,1007.25,VALID,0,VALID,94.6286,VALID,0,VALID,24.599,VALID,14,VALID,0,
2009-09-13, 01:14:04,VALID,1007.23,VALID,0,VALID,94.6515,VALID,0,VALID,24.638,VALID,14,VALID,0.316016,
2009-09-13, 01:15:04,VALID,1007.23,VALID,0,VALID,94.6591,VALID,0,VALID,24.6574,VALID,14,VALID,0,
2009-09-13, 01:16:04,VALID,1007.25,VALID,0,VALID,94.6591,VALID,0,VALID,24.638,VALID,14,VALID,0,
2009-09-13, 01:17:04,VALID,1007.23,VALID,0,VALID,94.6668,VALID,0,VALID,24.6574,VALID,14,VALID,0,
2009-09-13, 01:18:04,VALID,1007.25,VALID,0,VALID,94.621,VALID,0,VALID,24.6574,VALID,14,VALID,0,
2009-09-13, 01:19:04,VALID,1007.22,VALID,0,VALID,94.621,VALID,0,VALID,24.6574,VALID,14,VALID,0,
2009-09-13, 01:20:04,VALID,1007.22,VALID,0,VALID,94.5829,VALID,0,VALID,24.638,VALID,14,VALID,0,
2009-09-13, 01:21:04,VALID,1007.21,VALID,0,VALID,94.5676,VALID,0,VALID,24.6574,VALID,14,VALID,0,
2009-09-13, 01:22:04,VALID,1007.21,VALID,0,VALID,94.5752,VALID,0,VALID,24.638,VALID,14,VALID,0.198047,
2009-09-13, 01:23:04,VALID,1007.22,VALID,0,VALID,94.5142,VALID,0,VALID,24.6185,VALID,14,VALID,0.460547,
2009-09-13, 01:24:04,VALID,1007.23,VALID,0,VALID,94.5142,VALID,0,VALID,24.6185,VALID,14,VALID,0.299609,
2009-09-13, 01:25:04,VALID,1007.19,VALID,0,VALID,94.5066,VALID,0,VALID,24.6185,VALID,16,VALID,0.395703,
2009-09-13, 01:26:04,VALID,1007.2,VALID,0,VALID,94.5066,VALID,0,VALID,24.6185,VALID,16,VALID,0.334375,
2009-09-13, 01:27:04,VALID,1007.19,VALID,0,VALID,94.5447,VALID,0,VALID,24.6185,VALID,16,VALID,0.408203,
2009-09-13, 01:28:04,VALID,1007.17,VALID,0,VALID,94.5218,VALID,0,VALID,24.5972,VALID,16,VALID,0.205469,
2009-09-13, 01:29:04,VALID,1007.16,VALID,0,VALID,94.5295,VALID,0,VALID,24.599,VALID,16,VALID,0.300391,
2009-09-13, 01:30:04,VALID,1007.13,VALID,0,VALID,94.5295,VALID,0,VALID,24.599,VALID,16,VALID,0.244922,
2009-09-13, 01:31:04,VALID,1007.08,VALID,0,VALID,94.5066,VALID,0,VALID,24.5388,VALID,16,VALID,0.369922,
2009-09-13, 01:32:04,VALID,1007.09,VALID,0,VALID,94.4913,VALID,0,VALID,24.5406,VALID,16,VALID,0.176953,
2009-09-13, 01:33:04,VALID,1007.1,VALID,0,VALID,94.5295,VALID,0,VALID,24.5388,VALID,16,VALID,0.183594,
2009-09-13, 01:34:04,VALID,1007.09,VALID,0,VALID,94.5142,VALID,0,VALID,24.5193,VALID,16,VALID,0.224609,
2009-09-13, 01:35:04,VALID,1007.09,VALID,0,VALID,94.5142,VALID,0,VALID,24.5193,VALID,16,VALID,0,
2009-09-13, 01:36:04,VALID,1007.11,VALID,0,VALID,94.5066,VALID,0,VALID,24.5212,VALID,16,VALID,0,
2009-09-13, 01:37:04,VALID,1007.09,VALID,0,VALID,94.5066,VALID,0,VALID,24.5017,VALID,16,VALID,0,
2009-09-13, 01:38:04,VALID,1007.1,VALID,0,VALID,94.4913,VALID,0,VALID,24.4414,VALID,16,VALID,0,
2009-09-13, 01:39:04,VALID,1007.06,VALID,0,VALID,94.5142,VALID,0,VALID,24.4822,VALID,16,VALID,0.134375,
2009-09-13, 01:40:04,VALID,1007.09,VALID,0,VALID,94.5295,VALID,0,VALID,24.5017,VALID,16,VALID,0.30625,
2009-09-13, 01:41:04,VALID,1007.1,VALID,0,VALID,94.5371,VALID,0,VALID,24.4822,VALID,16,VALID,0.384766,
2009-09-13, 01:42:04,VALID,1007.11,VALID,0,VALID,94.56,VALID,0,VALID,24.4804,VALID,16,VALID,0.319922,
2009-09-13, 01:43:04,VALID,1007.13,VALID,0,VALID,94.5676,VALID,0,VALID,24.4822,VALID,16,VALID,0.136719,
2009-09-13, 01:44:04,VALID,1007.13,VALID,0,VALID,94.5676,VALID,0,VALID,24.4628,VALID,16,VALID,0,
2009-09-13, 01:45:04,VALID,1007.14,VALID,0,VALID,94.56,VALID,0,VALID,24.4646,VALID,16,VALID,0,
2009-09-13, 01:46:04,VALID,1007.16,VALID,0,VALID,94.56,VALID,0,VALID,24.4433,VALID,17,VALID,0.0125,
2009-09-13, 01:47:04,VALID,1007.14,VALID,0,VALID,94.5752,VALID,0,VALID,24.4628,VALID,55,VALID,0.232812,
2009-09-13, 01:48:04,VALID,1007.13,VALID,0,VALID,94.5752,VALID,0,VALID,24.4433,VALID,55,VALID,0,
2009-09-13, 01:49:04,VALID,1007.11,VALID,0,VALID,94.6057,VALID,0,VALID,24.4433,VALID,55,VALID,0,
2009-09-13, 01:50:04,VALID,1007.11,VALID,0,VALID,94.6057,VALID,0,VALID,24.4433,VALID,55,VALID,0,
2009-09-13, 01:51:04,VALID,1007.11,VALID,0,VALID,94.5981,VALID,0,VALID,24.4043,VALID,55,VALID,0.0207031,
2009-09-13, 01:52:04,VALID,1007.12,VALID,0,VALID,94.621,VALID,0,VALID,24.4043,VALID,55,VALID,0.314063,
2009-09-13, 01:53:04,VALID,1007.12,VALID,0,VALID,94.6057,VALID,0,VALID,24.3849,VALID,55,VALID,0.334766,
2009-09-13, 01:54:04,VALID,1007.15,VALID,0,VALID,94.682,VALID,0,VALID,24.4238,VALID,53,VALID,0.269531,
2009-09-13, 01:55:04,VALID,1007.13,VALID,0,VALID,94.7736,VALID,0,VALID,24.4822,VALID,23,VALID,0.383594,
2009-09-13, 01:56:04,VALID,1007.17,VALID,0,VALID,94.8194,VALID,0,VALID,24.4609,VALID,21,VALID,0.413281,
2009-09-13, 01:57:04,VALID,1007.16,VALID,0,VALID,94.827,VALID,0,VALID,24.4822,VALID,21,VALID,0.292969,
2009-09-13, 01:58:04,VALID,1007.15,VALID,0,VALID,94.8194,VALID,0,VALID,24.4628,VALID,21,VALID,0.155469,
2009-09-13, 01:59:04,VALID,1007.15,VALID,0,VALID,94.8194,VALID,0,VALID,24.4414,VALID,21,VALID,0,
2009-09-13, 02:00:04,VALID,1007.13,VALID,0,VALID,94.8194,VALID,0,VALID,24.4433,VALID,21,VALID,0,
2009-09-13, 02:01:04,VALID,1007.14,VALID,0,VALID,94.7965,VALID,0.100563,VALID,24.4433,VALID,21,VALID,0.194141,
2009-09-13, 02:02:04,VALID,1007.12,VALID,0,VALID,94.8041,VALID,0,VALID,24.4238,VALID,21,VALID,0,
2009-09-13, 02:03:04,VALID,1007.11,VALID,0,VALID,94.7888,VALID,0,VALID,24.383,VALID,21,VALID,0.335156,
2009-09-13, 02:04:04,VALID,1007.12,VALID,0,VALID,94.8117,VALID,0,VALID,24.4238,VALID,21,VALID,0.387109,
2009-09-13, 02:05:04,VALID,1007.14,VALID,0,VALID,94.8346,VALID,0,VALID,24.4238,VALID,21,VALID,0.380469,
2009-09-13, 02:06:04,VALID,1007.11,VALID,0,VALID,94.8728,VALID,0,VALID,24.4433,VALID,21,VALID,0.285156,
2009-09-13, 02:07:04,VALID,1007.1,VALID,0,VALID,94.8575,VALID,0,VALID,24.4433,VALID,21,VALID,0,
2009-09-13, 02:08:04,VALID,1007.09,VALID,0,VALID,94.8804,VALID,0,VALID,24.4433,VALID,21,VALID,0,
2009-09-13, 02:09:04,VALID,1007.08,VALID,0,VALID,94.9033,VALID,0,VALID,24.4238,VALID,21,VALID,0,
2009-09-13, 02:10:04,VALID,1007.06,VALID,0,VALID,94.9033,VALID,0,VALID,24.4433,VALID,21,VALID,0,
2009-09-13, 02:11:04,VALID,1007.04,VALID,0,VALID,94.9033,VALID,0,VALID,24.4238,VALID,21,VALID,0,
2009-09-13, 02:12:04,VALID,1007.04,VALID,0,VALID,94.888,VALID,0,VALID,24.4006,VALID,21,VALID,0,
2009-09-13, 02:13:04,VALID,1007.04,VALID,0,VALID,94.9109,VALID,0.100563,VALID,24.4025,VALID,21,VALID,0,
2009-09-13, 02:14:04,VALID,1006.98,VALID,0,VALID,94.9185,VALID,0,VALID,24.4025,VALID,21,VALID,0,
2009-09-13, 02:15:04,VALID,1006.97,VALID,0,VALID,94.8956,VALID,0,VALID,24.383,VALID,21,VALID,0,
2009-09-13, 02:16:04,VALID,1006.96,VALID,0,VALID,94.9185,VALID,0.100563,VALID,24.3617,VALID,21,VALID,0,
2009-09-13, 02:17:04,VALID,1006.92,VALID,0,VALID,94.9338,VALID,0.100563,VALID,24.4025,VALID,21,VALID,0,
2009-09-13, 02:18:04,VALID,1006.92,VALID,0,VALID,94.9338,VALID,0.100563,VALID,24.3812,VALID,21,VALID,0,
2009-09-13, 02:19:04,VALID,1006.88,VALID,0,VALID,94.9643,VALID,0.100563,VALID,24.4238,VALID,21,VALID,0,
2009-09-13, 02:20:04,VALID,1006.9,VALID,0,VALID,94.949,VALID,0.100563,VALID,24.3617,VALID,21,VALID,0,
2009-09-13, 02:21:04,VALID,1006.88,VALID,0,VALID,94.9338,VALID,0.100563,VALID,24.3636,VALID,21,VALID,0,
2009-09-13, 02:22:04,VALID,1006.9,VALID,0,VALID,94.9567,VALID,0.100563,VALID,24.3422,VALID,21,VALID,0,
2009-09-13, 02:23:04,VALID,1006.87,VALID,0,VALID,94.949,VALID,0.100563,VALID,24.3422,VALID,21,VALID,0,
2009-09-13, 02:24:04,VALID,1006.87,VALID,0,VALID,94.9872,VALID,0.100563,VALID,24.3636,VALID,21,VALID,0,
2009-09-13, 02:25:04,VALID,1006.87,VALID,0,VALID,94.9796,VALID,0,VALID,24.3849,VALID,21,VALID,0.368359,
2009-09-13, 02:26:04,VALID,1006.86,VALID,0,VALID,95.0253,VALID,0.100563,VALID,24.3441,VALID,21,VALID,0.236328,
2009-09-13, 02:27:04,VALID,1006.85,VALID,0,VALID,95.0177,VALID,0,VALID,24.3441,VALID,21,VALID,0,
2009-09-13, 02:28:04,VALID,1006.85,VALID,0,VALID,95.0253,VALID,0,VALID,24.3654,VALID,21,VALID,0.285547,
2009-09-13, 02:29:04,VALID,1006.88,VALID,0,VALID,95.033,VALID,0,VALID,24.3246,VALID,21,VALID,0,
2009-09-13, 02:30:04,VALID,1006.86,VALID,0,VALID,95.0253,VALID,0,VALID,24.3459,VALID,21,VALID,0,
2009-09-13, 02:31:04,VALID,1006.87,VALID,0,VALID,95.0482,VALID,0,VALID,24.3052,VALID,21,VALID,0,
2009-09-13, 02:32:04,VALID,1006.87,VALID,0,VALID,95.0406,VALID,0,VALID,24.3265,VALID,21,VALID,0,
2009-09-13, 02:33:04,VALID,1006.84,VALID,0,VALID,95.0635,VALID,0,VALID,24.307,VALID,21,VALID,0,
2009-09-13, 02:34:04,VALID,1006.88,VALID,0,VALID,95.0482,VALID,0,VALID,24.2875,VALID,21,VALID,0,
2009-09-13, 02:35:04,VALID,1006.89,VALID,0,VALID,95.0406,VALID,0,VALID,24.2681,VALID,21,VALID,0,
2009-09-13, 02:36:04,VALID,1006.86,VALID,0,VALID,95.0406,VALID,0,VALID,24.2681,VALID,21,VALID,0,
2009-09-13, 02:37:04,VALID,1006.9,VALID,0,VALID,95.033,VALID,0,VALID,24.2681,VALID,21,VALID,0,
2009-09-13, 02:38:04,VALID,1006.9,VALID,0,VALID,95.0787,VALID,0,VALID,24.2875,VALID,21,VALID,0,
2009-09-13, 02:39:04,VALID,1006.92,VALID,0,VALID,95.0787,VALID,0,VALID,24.3265,VALID,21,VALID,0,
2009-09-13, 02:40:04,VALID,1006.91,VALID,0,VALID,95.1093,VALID,0,VALID,24.3265,VALID,21,VALID,0,
2009-09-13, 02:41:04,VALID,1006.92,VALID,0,VALID,95.1093,VALID,0,VALID,24.3265,VALID,21,VALID,0,
2009-09-13, 02:42:04,VALID,1006.92,VALID,0,VALID,95.1169,VALID,0,VALID,24.2875,VALID,21,VALID,0,
2009-09-13, 02:43:04,VALID,1006.9,VALID,0,VALID,95.1093,VALID,0,VALID,24.2662,VALID,21,VALID,0,
2009-09-13, 02:44:04,VALID,1006.93,VALID,0,VALID,95.1169,VALID,0,VALID,24.2468,VALID,21,VALID,0,
2009-09-13, 02:45:04,VALID,1006.94,VALID,0,VALID,95.1016,VALID,0,VALID,24.2681,VALID,21,VALID,0,
2009-09-13, 02:46:04,VALID,1006.96,VALID,0,VALID,95.1016,VALID,0,VALID,24.2486,VALID,21,VALID,0,
2009-09-13, 02:47:04,VALID,1006.97,VALID,0,VALID,95.1169,VALID,0,VALID,24.2681,VALID,21,VALID,0,
2009-09-13, 02:48:04,VALID,1006.96,VALID,0,VALID,95.1245,VALID,0,VALID,24.2875,VALID,21,VALID,0,
2009-09-13, 02:49:04,VALID,1006.99,VALID,0,VALID,95.1169,VALID,0,VALID,24.2875,VALID,21,VALID,0,
2009-09-13, 02:50:04,VALID,1006.98,VALID,0,VALID,95.1169,VALID,0,VALID,24.307,VALID,21,VALID,0,
2009-09-13, 02:51:04,VALID,1006.99,VALID,0,VALID,95.1627,VALID,0,VALID,24.307,VALID,21,VALID,0,
2009-09-13, 02:52:04,VALID,1006.97,VALID,0,VALID,95.155,VALID,0,VALID,24.2875,VALID,21,VALID,0,
2009-09-13, 02:53:04,VALID,1007,VALID,0,VALID,95.155,VALID,0,VALID,24.2875,VALID,21,VALID,0,
2009-09-13, 02:54:04,VALID,1007,VALID,0,VALID,95.1245,VALID,0,VALID,24.2078,VALID,21,VALID,0,
2009-09-13, 02:55:04,VALID,1007.02,VALID,0,VALID,95.1169,VALID,0,VALID,24.1902,VALID,21,VALID,0,
2009-09-13, 02:56:04,VALID,1007,VALID,0,VALID,95.1245,VALID,0,VALID,24.1513,VALID,21,VALID,0,
2009-09-13, 02:57:04,VALID,1007.02,VALID,0,VALID,95.0787,VALID,0,VALID,24.1513,VALID,21,VALID,0,
2009-09-13, 02:58:04,VALID,1007.03,VALID,0,VALID,95.0787,VALID,0,VALID,24.1513,VALID,21,VALID,0,
2009-09-13, 02:59:04,VALID,1007.02,VALID,0,VALID,95.0787,VALID,0,VALID,24.1318,VALID,21,VALID,0,
2009-09-13, 03:00:04,VALID,1006.99,VALID,0,VALID,95.0864,VALID,0,VALID,24.1513,VALID,21,VALID,0,
2009-09-13, 03:01:04,VALID,1007.01,VALID,0,VALID,95.1169,VALID,0,VALID,24.1902,VALID,21,VALID,0,
2009-09-13, 03:02:04,VALID,1007.02,VALID,0,VALID,95.155,VALID,0,VALID,24.1902,VALID,21,VALID,0,
2009-09-13, 03:03:04,VALID,1007.03,VALID,0,VALID,95.1703,VALID,0,VALID,24.2097,VALID,21,VALID,0,
2009-09-13, 03:04:04,VALID,1006.99,VALID,0,VALID,95.1779,VALID,0,VALID,24.2097,VALID,21,VALID,0,
2009-09-13, 03:05:04,VALID,1007.02,VALID,0,VALID,95.1627,VALID,0,VALID,24.2097,VALID,21,VALID,0,
2009-09-13, 03:06:04,VALID,1007,VALID,0,VALID,95.1855,VALID,0,VALID,24.1689,VALID,21,VALID,0,
2009-09-13, 03:07:04,VALID,1007.01,VALID,0,VALID,95.2008,VALID,0,VALID,24.2097,VALID,21,VALID,0,
2009-09-13, 03:08:04,VALID,1007,VALID,0,VALID,95.1932,VALID,0,VALID,24.1689,VALID,21,VALID,0,
2009-09-13, 03:09:04,VALID,1007.01,VALID,0,VALID,95.1703,VALID,0,VALID,24.1318,VALID,21,VALID,0,
2009-09-13, 03:10:04,VALID,1006.98,VALID,0,VALID,95.1321,VALID,0.100563,VALID,24.091,VALID,21,VALID,0,
2009-09-13, 03:11:04,VALID,1007,VALID,0,VALID,95.1474,VALID,0.100563,VALID,24.091,VALID,21,VALID,0,
2009-09-13, 03:12:04,VALID,1007,VALID,0,VALID,95.1398,VALID,0,VALID,24.0929,VALID,21,VALID,0,
2009-09-13, 03:13:04,VALID,1007.02,VALID,0,VALID,95.1169,VALID,0,VALID,24.0521,VALID,21,VALID,0,
2009-09-13, 03:14:04,VALID,1006.98,VALID,0,VALID,95.1245,VALID,0,VALID,24.0734,VALID,21,VALID,0,
2009-09-13, 03:15:04,VALID,1006.98,VALID,0,VALID,95.1169,VALID,0,VALID,24.0539,VALID,21,VALID,0,
2009-09-13, 03:16:04,VALID,1006.98,VALID,0,VALID,95.1321,VALID,0,VALID,24.0734,VALID,21,VALID,0,
2009-09-13, 03:17:04,VALID,1006.97,VALID,0,VALID,95.1398,VALID,0,VALID,24.0132,VALID,21,VALID,0,
2009-09-13, 03:18:04,VALID,1006.95,VALID,0,VALID,95.1169,VALID,0,VALID,24.0345,VALID,21,VALID,0,
2009-09-13, 03:19:04,VALID,1006.91,VALID,0,VALID,95.1245,VALID,0,VALID,23.9955,VALID,21,VALID,0,
2009-09-13, 03:20:04,VALID,1006.95,VALID,0,VALID,95.1321,VALID,0,VALID,24.0345,VALID,21,VALID,0,
2009-09-13, 03:21:04,VALID,1006.94,VALID,0,VALID,95.1474,VALID,0,VALID,24.0132,VALID,21,VALID,0,
2009-09-13, 03:22:04,VALID,1006.97,VALID,0,VALID,95.1474,VALID,0,VALID,24.0345,VALID,21,VALID,0,
2009-09-13, 03:23:04,VALID,1006.95,VALID,0,VALID,95.1474,VALID,0,VALID,24.0326,VALID,21,VALID,0,
2009-09-13, 03:24:04,VALID,1006.98,VALID,0,VALID,95.1627,VALID,0,VALID,24.0734,VALID,21,VALID,0,
2009-09-13, 03:25:04,VALID,1007,VALID,0,VALID,95.2161,VALID,0,VALID,24.1318,VALID,21,VALID,0,
2009-09-13, 03:26:04,VALID,1007.03,VALID,0,VALID,95.2389,VALID,0,VALID,24.1707,VALID,21,VALID,0,
2009-09-13, 03:27:04,VALID,1007.05,VALID,0,VALID,95.2695,VALID,0,VALID,24.1902,VALID,21,VALID,0,
2009-09-13, 03:28:04,VALID,1007.04,VALID,0,VALID,95.2695,VALID,0,VALID,24.2097,VALID,21,VALID,0,
2009-09-13, 03:29:04,VALID,1007.03,VALID,0,VALID,95.2847,VALID,0,VALID,24.2291,VALID,21,VALID,0,
2009-09-13, 03:30:04,VALID,1007.03,VALID,0,VALID,95.2771,VALID,0,VALID,24.1494,VALID,21,VALID,0,
2009-09-13, 03:31:04,VALID,1007.02,VALID,0,VALID,95.2542,VALID,0,VALID,24.1105,VALID,21,VALID,0,
2009-09-13, 03:32:04,VALID,1007.03,VALID,0,VALID,95.2542,VALID,0,VALID,24.0929,VALID,21,VALID,0,
2009-09-13, 03:33:04,VALID,1007.02,VALID,0,VALID,95.2618,VALID,0,VALID,24.1513,VALID,21,VALID,0,
2009-09-13, 03:34:04,VALID,1007.03,VALID,0,VALID,95.2771,VALID,0,VALID,24.1494,VALID,21,VALID,0,
2009-09-13, 03:35:04,VALID,1007.03,VALID,0,VALID,95.2923,VALID,0,VALID,24.1902,VALID,21,VALID,0,
2009-09-13, 03:36:04,VALID,1007.03,VALID,0,VALID,95.3152,VALID,0,VALID,24.1884,VALID,21,VALID,0,
2009-09-13, 03:37:04,VALID,1007.02,VALID,0,VALID,95.2771,VALID,0,VALID,24.2097,VALID,21,VALID,0,
2009-09-13, 03:38:04,VALID,1006.99,VALID,0,VALID,95.3076,VALID,0,VALID,24.1884,VALID,21,VALID,0,
2009-09-13, 03:39:04,VALID,1007,VALID,0,VALID,95.2847,VALID,0,VALID,24.1707,VALID,21,VALID,0,
2009-09-13, 03:40:04,VALID,1007,VALID,0,VALID,95.2923,VALID,0,VALID,24.1494,VALID,21,VALID,0,
2009-09-13, 03:41:04,VALID,1006.98,VALID,0,VALID,95.3,VALID,0,VALID,24.2486,VALID,21,VALID,0,
2009-09-13, 03:42:04,VALID,1007,VALID,0,VALID,95.3229,VALID,0,VALID,24.2857,VALID,21,VALID,0,
2009-09-13, 03:43:04,VALID,1007,VALID,0,VALID,95.3381,VALID,0,VALID,24.307,VALID,21,VALID,0,
2009-09-13, 03:44:04,VALID,1006.96,VALID,0,VALID,95.3457,VALID,0,VALID,24.307,VALID,21,VALID,0,
2009-09-13, 03:45:04,VALID,1006.95,VALID,0,VALID,95.3305,VALID,0,VALID,24.2875,VALID,21,VALID,0,
2009-09-13, 03:46:04,VALID,1006.95,VALID,0,VALID,95.3076,VALID,0,VALID,24.2486,VALID,21,VALID,0,
2009-09-13, 03:47:04,VALID,1006.96,VALID,0,VALID,95.3076,VALID,0,VALID,24.2273,VALID,21,VALID,0,
2009-09-13, 03:48:04,VALID,1006.96,VALID,0,VALID,95.2923,VALID,0,VALID,24.2273,VALID,21,VALID,0,
2009-09-13, 03:49:04,VALID,1006.96,VALID,0,VALID,95.2923,VALID,0,VALID,24.206,VALID,21,VALID,0,
2009-09-13, 03:50:04,VALID,1006.99,VALID,0,VALID,95.2923,VALID,0,VALID,24.2273,VALID,21,VALID,0,
2009-09-13, 03:51:04,VALID,1007,VALID,0,VALID,95.3076,VALID,0,VALID,24.2681,VALID,21,VALID,0,
2009-09-13, 03:52:04,VALID,1007.02,VALID,0,VALID,95.3,VALID,0,VALID,24.2857,VALID,21,VALID,0,
2009-09-13, 03:53:04,VALID,1007.01,VALID,0,VALID,95.3076,VALID,0,VALID,24.2662,VALID,21,VALID,0,
2009-09-13, 03:54:04,VALID,1007.05,VALID,0,VALID,95.3076,VALID,0,VALID,24.2662,VALID,21,VALID,0,
2009-09-13, 03:55:04,VALID,1007.03,VALID,0,VALID,95.3229,VALID,0,VALID,24.307,VALID,21,VALID,0,
2009-09-13, 03:56:04,VALID,1007.04,VALID,0,VALID,95.3152,VALID,0,VALID,24.3265,VALID,21,VALID,0,